Location: Unspecified
(0.0000°N, 0.0000°E)
Time: 04:16:52
(UTC+02:00)

Ariane H10+ - Visible Passes

Search period start: 28 August 2016 00:00
Search period end: 07 September 2016 00:00
Orbit: 303 x 31390 km, 7.2° (Epoch: 27 August)

Date Brightness Start Highest point End Pass type
(mag) Time Alt. Az. Time Alt. Az. Time Alt. Az.
28 Aug 7.1 03:31:11 54° ENE 03:31:11 54° ENE 11:33:14 10° E visible
28 Aug 3.8 21:17:01 10° WSW 21:23:51 33° SSW 21:24:25 31° S visible
29 Aug 7.6 07:00:04 14° W 07:51:51 80° N 15:29:37 10° E visible
31 Aug 6.7 04:48:09 71° NW 04:51:27 78° N 13:05:06 10° E visible
02 Sep 7.7 02:36:11 31° E 02:36:11 31° E 10:21:54 10° E visible
02 Sep 4.7 20:10:48 10° W 20:25:19 44° SSW 20:28:41 10° ESE visible
03 Sep 7.2 06:04:58 33° W 06:27:45 79° N 14:30:12 10° E visible
05 Sep 7.0 03:52:54 68° NE 03:52:54 68° NE 12:01:47 10° E visible
05 Sep 4.6 21:42:32 10° WSW 21:45:19 23° SW 21:45:19 23° SW visible
06 Sep 7.6 07:22:24 10° W 09:37:27 81° NNW 15:52:14 10° ESE visible
